This is the latest recevied weather packets stored in our database for station/object NC4M. If no packets are shown the sender has not sent any weather packets the latest 10 day(s).
| Time | Temp. | Humidity | Pressure | Rain* | Wind** | Luminosity | Snow |
|---|---|---|---|---|---|---|---|
| 1777926906 | 28.33° C | 41% | 1004.6 hPa | 0 mm | - | 537 W/m² | - |
| 1777926602 | 27.78° C | 43% | 1004.7 hPa | 0 mm | - | 687 W/m² | - |
| 1777926298 | 27.78° C | 43% | 1005 hPa | 0 mm | - | 333 W/m² | - |
| 1777925995 | 27.78° C | 41% | 1005.1 hPa | 0 mm | - | 219 W/m² | - |
| 1777925692 | 27.22° C | 45% | 1004.7 hPa | 0 mm | - | 567 W/m² | - |
| 1777925390 | 26.11° C | 46% | 1004.6 hPa | 0 mm | - | 283 W/m² | - |
| 1777925086 | 25.56° C | 53% | 1004.5 hPa | 0 mm | - | 220 W/m² | - |
| 1777924783 | 25° C | 49% | 1004.7 hPa | 0 mm | - | 240 W/m² | - |
| 1777924479 | 25° C | 48% | 1005.3 hPa | 0 mm | - | 181 W/m² | - |
| 1777924176 | 23.89° C | 52% | 1005 hPa | 0 mm | - | 234 W/m² | - |
| 1777923872 | 23.89° C | 52% | 1005.6 hPa | 0 mm | - | 115 W/m² | - |
| 1777923568 | 23.89° C | 49% | 1005.9 hPa | 0 mm | - | 103 W/m² | - |
| 1777923265 | 24.44° C | 47% | 1006.2 hPa | 0 mm | - | 56 W/m² | - |
| 1777922964 | 24.44° C | 46% | 1006.1 hPa | 0 mm | - | 67 W/m² | - |
| 1777922661 | 25° C | 45% | 1006 hPa | 0 mm | - | 82 W/m² | - |
| 1777922360 | 25.56° C | 47% | 1006 hPa | 0 mm | - | 97 W/m² | - |
| 1777922057 | 26.11° C | 43% | 1006.3 hPa | 0 mm | - | 161 W/m² | - |
| 1777921752 | 26.67° C | 43% | 1006.1 hPa | 0 mm | - | 254 W/m² | - |
| 1777921448 | 26.67° C | 44% | 1006.1 hPa | 0 mm | - | 212 W/m² | - |
| 1777921145 | 27.22° C | 47% | 1006.2 hPa | 0 mm | - | 267 W/m² | - |
| 1777920842 | 27.22° C | 44% | 1006.1 hPa | 0 mm | - | 249 W/m² | - |
| 1777920538 | 26.67° C | 50% | 1006.2 hPa | 0 mm | - | 372 W/m² | - |
| 1777920234 | 26.11° C | 46% | 1006.4 hPa | 0 mm | - | 442 W/m² | - |
| 1777919930 | 25.56° C | 45% | 1006.4 hPa | 0 mm | - | 307 W/m² | - |
| 1777919628 | 25.56° C | 49% | 1006 hPa | 0 mm | - | 324 W/m² | - |
* Rain latest hour (hover to see other rain measurements)
** Current wind speed in m/s (hover to see current wind gust speed)